This demonstration page uses our WeatherBlox Daily Observations layout. Learn more.

Hourly Observations for August 13, 2019

Temp ( °F °C ) Dew Point ( °F °C ) Humidity (%) Winds ( mph kmh ) Pressure ( in mb ) Visibility ( mi km ) Precip ( " mm )
12:15 am 00:15 Clear 66 19.1 66 18.8 98 98 NW 5 7 29.97 1015 10 16.09344 0 0
12:35 am 00:35 Clear 66 19 65 18.6 98 98 NNW 3 6 29.97 1015 10 16.09344 0 0
12:55 am 00:55 Clear 66 18.7 65 18.3 98 98 Calm 29.97 1015 10 16.09344 0 0
1:15 am 01:15 Clear 65 18.2 64 18 99 99 NW 5 7 29.97 1015 10 16.09344 0 0
1:35 am 01:35 Clear 65 18.2 64 18 99 99 WNW 3 6 29.97 1015 10 16.09344 0 0
1:55 am 01:55 Clear 64 18 64 18 100 100 NW 3 6 29.97 1015 10 16.09344 0 0
2:15 am 02:15 Clear 64 17.8 64 17.7 99 99 NW 5 7 29.97 1015 10 16.09344 0 0
2:35 am 02:35 Clear 64 17.5 64 17.5 100 100 Calm 29.97 1015 10 16.09344 0 0
2:55 am 02:55 Clear 63 17.2 63 17.2 100 100 Calm 29.97 1015 10 16.09344 0 0
3:15 am 03:15 Clear 63 17 63 17 100 100 Calm 29.97 1015 10 16.09344 0 0
3:35 am 03:35 Clear 63 17 63 17 100 100 Calm 29.97 1015 10 16.09344 0 0
3:55 am 03:55 Clear 62 16.5 62 16.5 100 100 NNE 3 6 30 1016 10 16.09344 0 0
4:15 am 04:15 Clear 62 16.7 62 16.7 100 100 NE 5 7 30 1016 10 16.09344 0 0
4:35 am 04:35 Clear 63 17 62 16.9 99 99 Calm 29.97 1015 10 16.09344 0 0
4:55 am 04:55 Clear 61 16.2 61 16.1 99 99 W 5 7 30 1016 10 16.09344 0 0
5:15 am 05:15 Clear 61 16.3 61 16.3 100 100 W 5 7 30 1016 10 16.09344 0 0
5:35 am 05:35 Clear 61 16.2 61 16.1 99 99 WSW 3 6 30.03 1017 10 16.09344 0 0
5:55 am 05:55 Clear 61 16.3 61 16.3 100 100 SW 6 9 30.03 1017 10 16.09344 0 0
6:15 am 06:15 Clear 61 16.3 61 16.2 99 99 Calm 30.03 1017 10 16.09344 0 0
6:35 am 06:35 Clear 62 16.5 62 16.4 99 99 Calm 30.03 1017 10 16.09344 0 0
6:55 am 06:55 Sunny with Mist and Fog 60 15.7 60 15.7 100 100 Calm 30.03 1017 5 8.04672 0 0
7:15 am 07:15 Sunny 60 15.7 60 15.7 100 100 Calm 30.03 1017 7 11.265408 0 0
7:35 am 07:35 Sunny with Mist and Fog 61 16.2 61 16.2 100 100 Calm 30.06 1018 5 8.04672 0 0
7:55 am 07:55 Sunny with Mist and Fog 63 17.1 63 17.1 100 100 NNW 3 6 30.06 1018 5 8.04672 0 0
8:15 am 08:15 Sunny 64 18 64 18 100 100 Calm 30.03 1017 7 11.265408 0 0
8:35 am 08:35 Sunny 66 19 65 18.5 97 97 NNW 3 6 30.03 1017 10 16.09344 0 0
8:55 am 08:55 Sunny 68 19.8 67 19.3 97 97 N 5 7 30.03 1017 10 16.09344 0 0
9:15 am 09:15 Sunny 69 20.5 67 19.5 94 94 N 3 6 30.03 1017 10 16.09344 0 0
9:35 am 09:35 Sunny 71 21.6 68 19.9 90 90 Calm 30 1016 10 16.09344 0 0
9:55 am 09:55 Sunny 71 21.8 66 19 84 84 Calm 30 1016 10 16.09344 0 0
10:15 am 10:15 Sunny 73 22.6 67 19.2 81 81 Calm 30.03 1017 10 16.09344 0 0
10:35 am 10:35 Partly Cloudy 74 23.6 66 19.1 76 76 Calm 30.03 1017 10 16.09344 0 0
10:55 am 10:55 Partly Cloudy 75 23.8 67 19.4 76 76 Calm 30.03 1017 10 16.09344 0 0
11:15 am 11:15 Mostly Cloudy 75 24.1 67 19.2 74 74 NNW 3 6 30.03 1017 10 16.09344 0 0
11:35 am 11:35 Partly Cloudy 76 24.4 66 18.8 71 71 NNW 3 6 30.03 1017 10 16.09344 0 0
11:55 am 11:55 Sunny 77 24.8 64 17.8 65 65 NNE 3 6 30 1016 10 16.09344 0 0
12:15 pm 12:15 Sunny 78 25.5 64 17.7 62 62 N 5 7 30.03 1017 10 16.09344 0 0
12:35 pm 12:35 Sunny 78 25.5 65 18.6 66 66 NE 3 6 30 1016 10 16.09344 0 0
12:55 pm 12:55 Sunny 79 26.1 64 17.8 60 60 NE 6 9 30 1016 10 16.09344 0 0
1:15 pm 13:15 Sunny 80 26.9 60 15.8 51 51 ENE 9 15 30 1016 10 16.09344 0 0
1:35 pm 13:35 Sunny 80 26.6 62 16.9 55 55 ENE 7 11 29.97 1015 10 16.09344 0 0
1:55 pm 13:55 Sunny 81 27 63 17.3 55 55 E 6 9 29.97 1015 10 16.09344 0 0
2:15 pm 14:15 Sunny 81 27.3 60 15.3 48 48 E 7 11 29.97 1015 10 16.09344 0 0
2:35 pm 14:35 Sunny 82 27.5 62 16.5 51 51 ENE 8 13 29.97 1015 10 16.09344 0 0
2:55 pm 14:55 Sunny 82 27.6 61 15.9 49 49 S 3 6 29.97 1015 10 16.09344 0 0
3:15 pm 15:15 Sunny 81 27.4 61 15.9 49 49 E 6 9 29.97 1015 10 16.09344 0 0
3:35 pm 15:35 Sunny 80 26.9 61 16.3 52 52 E 6 9 29.97 1015 10 16.09344 0 0
3:55 pm 15:55 Sunny 78 25.7 65 18.4 64 64 N 5 7 29.97 1015 10 16.09344 0 0
4:15 pm 16:15 Sunny 77 24.8 68 20.1 75 75 NNW 3 6 29.97 1015 10 16.09344 0 0
4:35 pm 16:35 Sunny with Nearby Thunderstorms 75 23.8 67 19.6 77 77 WSW 7 11 30.03 1017 10 16.09344 0 0
4:55 pm 16:55 Mostly Cloudy 74 23.6 64 18 71 71 SSW 17 28 30 1016 10 16.09344 0 0
5:15 pm 17:15 Mostly Cloudy with Light Drizzle 74 23.5 61 16 63 63 S 12 19 29.97 1015 10 16.09344 0 0
5:35 pm 17:35 Mostly Cloudy 76 24.5 52 11.2 43 43 SSW 22 35 29.91 1013 10 16.09344 0 0
5:55 pm 17:55 Partly Cloudy 80 26.5 49 9.7 35 35 S 26 43 29.91 1013 10 16.09344 0 0
6:15 pm 18:15 Partly Cloudy 78 25.3 51 10.6 40 40 S 31 50 29.83 1010 10 16.09344 0 0
6:35 pm 18:35 Sunny 76 24.7 54 12 45 45 NNW 17 28 29.91 1013 10 16.09344 0 0
6:55 pm 18:55 Sunny 75 23.8 56 13.1 51 51 NNW 8 13 29.91 1013 10 16.09344 0 0
7:15 pm 19:15 Sunny 70 21.1 59 15.1 69 69 N 7 11 29.94 1014 10 16.09344 0 0
7:35 pm 19:35 Sunny 70 21.3 62 16.9 76 76 NNE 13 20 29.97 1015 10 16.09344 0 0
7:55 pm 19:55 Sunny 70 21.1 62 16.7 76 76 NNE 10 17 29.97 1015 10 16.09344 0 0
8:15 pm 20:15 Sunny 69 20.8 62 16.5 77 77 NNE 8 13 29.97 1015 10 16.09344 0 0
8:35 pm 20:35 Sunny 69 20.3 62 16.7 80 80 NNE 8 13 30.03 1017 10 16.09344 0 0
8:55 pm 20:55 Clear 69 20.4 62 16.5 78 78 NNE 9 15 30.03 1017 10 16.09344 0 0
9:15 pm 21:15 Clear 68 20 62 16.5 80 80 NE 8 13 30.03 1017 10 16.09344 0 0
9:35 pm 21:35 Clear 67 19.3 62 16.7 85 85 NNE 5 7 30.03 1017 10 16.09344 0 0
9:55 pm 21:55 Clear 66 19 62 16.8 87 87 Calm 30.06 1018 10 16.09344 0 0
10:15 pm 22:15 Clear 65 18.6 62 16.7 89 89 NNE 3 6 30.06 1018 10 16.09344 0 0
10:35 pm 22:35 Clear 65 18.2 62 16.8 92 92 N 3 6 30.06 1018 10 16.09344 0 0
10:55 pm 22:55 Clear 64 17.6 62 16.8 95 95 NW 3 6 30.12 1020 10 16.09344 0 0
11:15 pm 23:15 Clear 63 17.2 62 16.7 97 97 Calm 30.12 1020 10 16.09344 0 0
11:35 pm 23:35 Clear 62 16.9 62 16.6 98 98 Calm 30.12 1020 10 16.09344 0 0
11:55 pm 23:55 Clear 63 17.1 62 16.6 97 97 Calm 30.12 1020 10 16.09344 0 0

Powered by AerisWeather